Location: Helion Bumpstead
(52.0500°N, 0.4000°E)
Time: 08:48:30
(UTC+00:00)

Okean 2 Rocket - Pass Details

Date: 15 November 2025
Orbit: 611 x 634 km, 82.5° (Epoch: 14 December)

Event Time Altitude Azimuth Distance (km) Brightness Sun altitude
Rises 05:16:12 0° 351° (N) 2,891 6.3 -18.6°
Reaches altitude 10° 05:18:28 10° 355° (N) 1,981 5.5 -18.2°
Maximum altitude 05:22:48 60° 76° (ENE) 704 3.6 -17.6°
Drops below altitude 10° 05:27:07 10° 157° (SSE) 1,968 6.0 -16.9°
Sets 05:29:21 0° 161° (SSE) 2,871 6.9 -16.6°
